Time,TemperatureF,DewpointF,PressureIn,WindDirection,WindDirectionDegrees,WindSpeedMPH,WindSpeedGustMPH,Humidity,HourlyPrecipIn,Conditions,Clouds,dailyrainin,SoftwareType,DateUTC
2013-04-25 00:00:00,46.1,12.2,30.09,SE,146,2.0,11.0,25,0.00,,CLR,0.00,VWS V14.01,2013-04-25 06:00:00,
2013-04-25 00:03:00,45.9,12.1,30.09,West,259,0.0,2.0,25,0.00,,FEW120,0.00,VWS V14.01,2013-04-25 06:03:00,
2013-04-25 00:08:00,45.7,11.9,30.09,East,93,4.0,6.0,25,0.00,,FEW120,0.00,VWS V14.01,2013-04-25 06:08:00,
2013-04-25 00:13:00,45.8,12.0,30.09,ESE,122,2.0,7.0,25,0.00,,FEW120,0.00,VWS V14.01,2013-04-25 06:13:00,
2013-04-25 00:18:00,45.8,12.9,30.09,SE,146,1.0,7.0,26,0.00,,FEW120,0.00,VWS V14.01,2013-04-25 06:18:00,
2013-04-25 00:23:00,45.9,13.8,30.09,ENE,75,5.0,7.0,27,0.00,,FEW120,0.00,VWS V14.01,2013-04-25 06:23:00,
2013-04-25 00:28:00,45.8,14.6,30.09,ESE,113,2.0,7.0,28,0.00,,FEW120,0.00,VWS V14.01,2013-04-25 06:28:00,
2013-04-25 00:30:00,45.9,14.6,30.09,SSE,158,4.0,7.0,28,0.00,,CLR,0.00,VWS V14.01,2013-04-25 06:30:00,
2013-04-25 00:33:00,45.9,14.6,30.09,SE,136,3.0,6.0,28,0.00,,CLR,0.00,VWS V14.01,2013-04-25 06:33:00,
2013-04-25 00:38:00,45.6,15.2,30.09,SE,127,6.0,9.0,29,0.00,,CLR,0.00,VWS V14.01,2013-04-25 06:38:00,
2013-04-25 00:43:00,45.3,15.7,30.08,East,95,6.0,10.0,30,0.00,,CLR,0.00,VWS V14.01,2013-04-25 06:43:00,
2013-04-25 00:49:00,45.2,15.6,30.08,SE,138,4.0,12.0,30,0.00,,SCT110,0.00,VWS V14.01,2013-04-25 06:49:00,
2013-04-25 00:54:00,45.1,15.5,30.08,ESE,111,4.0,12.0,30,0.00,,SCT110,0.00,VWS V14.01,2013-04-25 06:54:00,
2013-04-25 00:59:00,44.9,16.1,30.08,SSE,151,5.0,12.0,31,0.00,,SCT110,0.00,VWS V14.01,2013-04-25 06:59:00,
2013-04-25 01:00:00,45.0,16.2,30.08,South,190,3.0,12.0,31,0.00,,CLR,0.00,VWS V14.01,2013-04-25 07:00:00,
2013-04-25 01:04:00,44.9,16.1,30.08,ESE,103,5.0,11.0,31,0.00,,SCT110,0.00,VWS V14.01,2013-04-25 07:04:00,
2013-04-25 01:09:00,44.4,15.7,30.08,East,87,4.0,11.0,31,0.00,,SCT110,0.00,VWS V14.01,2013-04-25 07:09:00,
2013-04-25 01:14:00,43.7,15.1,30.08,East,86,4.0,11.0,31,0.00,,SCT110,0.00,VWS V14.01,2013-04-25 07:14:00,
2013-04-25 01:19:00,43.9,16.0,30.08,East,95,4.0,12.0,32,0.00,,SCT110,0.00,VWS V14.01,2013-04-25 07:19:00,
2013-04-25 01:24:00,44.0,16.0,30.08,East,98,5.0,12.0,32,0.00,,SCT110,0.00,VWS V14.01,2013-04-25 07:24:00,
2013-04-25 01:29:00,43.6,16.4,30.08,SE,139,10.0,12.0,33,0.00,,SCT110,0.00,VWS V14.01,2013-04-25 07:29:00,
2013-04-25 01:30:00,43.6,16.4,30.08,SE,124,5.0,12.0,33,0.00,,CLR,0.00,VWS V14.01,2013-04-25 07:30:00,
2013-04-25 01:34:00,43.5,16.3,30.08,SE,130,8.0,17.0,33,0.00,,SCT110,0.00,VWS V14.01,2013-04-25 07:34:00,
2013-04-25 01:39:00,43.6,16.4,30.08,SE,126,9.0,17.0,33,0.00,,SCT110,0.00,VWS V14.01,2013-04-25 07:39:00,
2013-04-25 01:44:00,43.6,15.7,30.08,East,101,6.0,17.0,32,0.00,,SCT110,0.00,VWS V14.01,2013-04-25 07:44:00,
2013-04-25 01:49:00,43.5,16.3,30.08,SE,128,7.0,17.0,33,0.00,,BKN100,0.00,VWS V14.01,2013-04-25 07:49:00,
2013-04-25 01:54:00,43.5,16.3,30.07,SE,125,10.0,17.0,33,0.00,,BKN100,0.00,VWS V14.01,2013-04-25 07:54:00,
2013-04-25 01:59:00,43.7,15.8,30.08,ESE,106,10.0,17.0,32,0.00,,BKN100,0.00,VWS V14.01,2013-04-25 07:59:00,
2013-04-25 02:00:00,43.7,15.8,30.07,SE,126,10.0,17.0,32,0.00,,CLR,0.00,VWS V14.01,2013-04-25 08:00:00,
2013-04-25 02:04:00,43.8,15.9,30.07,ESE,113,6.0,11.0,32,0.00,,FEW100,0.00,VWS V14.01,2013-04-25 08:04:00,
2013-04-25 02:09:00,43.8,15.1,30.07,ENE,60,13.0,13.0,31,0.00,,FEW100,0.00,VWS V14.01,2013-04-25 08:09:00,
2013-04-25 02:14:00,43.8,15.1,30.07,East,95,2.0,13.0,31,0.00,,FEW100,0.00,VWS V14.01,2013-04-25 08:14:00,
2013-04-25 02:19:00,43.8,15.1,30.07,ESE,122,7.0,13.0,31,0.00,,FEW100,0.00,VWS V14.01,2013-04-25 08:19:00,
2013-04-25 02:24:00,44.0,14.6,30.07,ESE,121,7.0,13.0,30,0.00,,FEW100,0.00,VWS V14.01,2013-04-25 08:24:00,
2013-04-25 02:29:00,44.2,14.8,30.07,ESE,121,11.0,13.0,30,0.00,,FEW100,0.00,VWS V14.01,2013-04-25 08:29:00,
2013-04-25 02:30:00,44.2,14.8,30.07,ESE,114,10.0,13.0,30,0.00,,CLR,0.00,VWS V14.01,2013-04-25 08:30:00,
2013-04-25 02:34:00,44.2,14.8,30.07,ESE,116,3.0,12.0,30,0.00,,BKN110,0.00,VWS V14.01,2013-04-25 08:34:00,
2013-04-25 02:39:00,43.9,14.5,30.07,ENE,77,5.0,12.0,30,0.00,,BKN110,0.00,VWS V14.01,2013-04-25 08:39:00,
2013-04-25 02:44:00,43.6,14.2,30.07,East,99,4.0,12.0,30,0.00,,BKN110,0.00,VWS V14.01,2013-04-25 08:44:00,
2013-04-25 02:49:00,43.2,14.6,30.07,ENE,64,1.0,12.0,31,0.00,,OVC100,0.00,VWS V14.01,2013-04-25 08:49:00,
2013-04-25 02:54:00,43.0,14.4,30.07,ENE,70,1.0,12.0,31,0.00,,OVC100,0.00,VWS V14.01,2013-04-25 08:54:00,
2013-04-25 02:59:00,43.0,14.4,30.07,East,98,6.0,12.0,31,0.00,,OVC100,0.00,VWS V14.01,2013-04-25 08:59:00,
2013-04-25 03:00:00,43.0,14.4,30.07,ESE,110,8.0,12.0,31,0.00,,CLR,0.00,VWS V14.01,2013-04-25 09:00:00,
2013-04-25 03:04:00,43.0,14.4,30.06,ESE,103,4.0,10.0,31,0.00,,BKN110,0.00,VWS V14.01,2013-04-25 09:04:00,
2013-04-25 03:09:00,43.0,13.7,30.06,SE,139,6.0,10.0,30,0.00,,BKN110,0.00,VWS V14.01,2013-04-25 09:09:00,
2013-04-25 03:14:00,43.1,13.8,30.06,ENE,69,0.0,10.0,30,0.00,,BKN110,0.00,VWS V14.01,2013-04-25 09:14:00,
2013-04-25 03:19:00,42.5,14.0,30.06,ENE,65,0.0,10.0,31,0.00,,BKN110,0.00,VWS V14.01,2013-04-25 09:19:00,
2013-04-25 03:24:00,42.1,13.7,30.06,SE,126,0.0,10.0,31,0.00,,BKN110,0.00,VWS V14.01,2013-04-25 09:24:00,
2013-04-25 03:29:00,41.8,14.1,30.06,SE,126,0.0,10.0,32,0.00,,BKN110,0.00,VWS V14.01,2013-04-25 09:29:00,
2013-04-25 03:30:00,41.7,14.0,30.06,SE,124,0.0,10.0,32,0.00,,CLR,0.00,VWS V14.01,2013-04-25 09:30:00,
2013-04-25 03:34:00,42.6,12.6,30.06,NNE,17,0.0,4.0,29,0.00,,CLR,0.00,VWS V14.01,2013-04-25 09:34:00,
2013-04-25 03:40:00,42.4,13.2,30.05,SW,224,1.0,4.0,30,0.00,,CLR,0.00,VWS V14.01,2013-04-25 09:40:00,
2013-04-25 03:45:00,41.9,13.5,30.05,WSW,240,0.0,4.0,31,0.00,,CLR,0.00,VWS V14.01,2013-04-25 09:45:00,
2013-04-25 03:50:00,41.5,13.9,30.05,SE,142,1.0,4.0,32,0.00,,BKN100,0.00,VWS V14.01,2013-04-25 09:50:00,
2013-04-25 03:55:00,41.7,13.3,30.05,SSE,152,0.0,4.0,31,0.00,,BKN100,0.00,VWS V14.01,2013-04-25 09:55:00,
2013-04-25 04:00:00,42.0,13.6,30.05,SE,136,0.0,4.0,31,0.00,,BKN100,0.00,VWS V14.01,2013-04-25 10:00:00,
2013-04-25 04:05:00,42.2,13.0,30.05,ENE,64,2.0,2.0,30,0.00,,BKN110,0.00,VWS V14.01,2013-04-25 10:05:00,
2013-04-25 04:10:00,42.3,13.1,30.05,ENE,63,0.0,2.0,30,0.00,,BKN110,0.00,VWS V14.01,2013-04-25 10:10:00,
2013-04-25 04:15:00,41.5,13.1,30.04,SSE,149,1.0,2.0,31,0.00,,BKN110,0.00,VWS V14.01,2013-04-25 10:15:00,
2013-04-25 04:20:00,40.4,11.4,30.05,East,93,1.0,2.0,30,0.00,,BKN110,0.00,VWS V14.01,2013-04-25 10:20:00,
2013-04-25 04:25:00,39.9,11.7,30.05,East,94,0.0,2.0,31,0.00,,BKN110,0.00,VWS V14.01,2013-04-25 10:25:00,
2013-04-25 04:30:00,39.8,12.4,30.05,East,95,0.0,2.0,32,0.00,,BKN110,0.00,VWS V14.01,2013-04-25 10:30:00,
2013-04-25 04:35:00,39.9,12.4,30.05,East,94,0.0,0.0,32,0.00,,FEW120,0.00,VWS V14.01,2013-04-25 10:35:00,
2013-04-25 04:40:00,40.4,12.9,30.04,East,95,1.0,1.0,32,0.00,,FEW120,0.00,VWS V14.01,2013-04-25 10:40:00,
2013-04-25 04:45:00,40.9,12.6,30.04,East,87,2.0,2.0,31,0.00,,FEW120,0.00,VWS V14.01,2013-04-25 10:45:00,
2013-04-25 04:50:00,40.5,13.0,30.04,East,100,3.0,3.0,32,0.00,,FEW120,0.00,VWS V14.01,2013-04-25 10:50:00,
2013-04-25 04:55:00,41.2,12.1,30.03,SE,126,4.0,6.0,30,0.00,,FEW120,0.00,VWS V14.01,2013-04-25 10:55:00,
2013-04-25 05:00:00,41.8,12.7,30.03,East,99,2.0,6.0,30,0.00,,FEW120,0.00,VWS V14.01,2013-04-25 11:00:00,
2013-04-25 05:05:00,41.6,12.5,30.03,East,92,1.0,5.0,30,0.00,,FEW120,0.00,VWS V14.01,2013-04-25 11:05:00,
2013-04-25 05:10:00,40.6,12.4,30.03,ESE,106,3.0,5.0,31,0.00,,FEW120,0.00,VWS V14.01,2013-04-25 11:10:00,
2013-04-25 05:15:00,40.4,12.2,30.03,SW,214,2.0,5.0,31,0.00,,FEW120,0.00,VWS V14.01,2013-04-25 11:15:00,
2013-04-25 05:20:00,39.7,12.3,30.02,South,169,1.0,5.0,32,0.00,,FEW120,0.00,VWS V14.01,2013-04-25 11:20:00,
2013-04-25 05:25:00,40.2,12.7,30.04,WNW,285,2.0,5.0,32,0.00,,FEW120,0.00,VWS V14.01,2013-04-25 11:25:00,
2013-04-25 05:30:00,39.9,12.4,30.03,SE,139,1.0,1.0,32,0.00,,FEW120,0.00,VWS V14.01,2013-04-25 11:30:00,
2013-04-25 05:35:00,39.7,12.3,30.04,SE,139,0.0,1.0,32,0.00,,SCT110,0.00,VWS V14.01,2013-04-25 11:35:00,
2013-04-25 05:40:00,39.8,12.4,30.04,East,90,0.0,2.0,32,0.00,,SCT110,0.00,VWS V14.01,2013-04-25 11:40:00,
2013-04-25 05:45:00,39.8,13.1,30.04,East,90,0.0,2.0,33,0.00,,SCT110,0.00,VWS V14.01,2013-04-25 11:45:00,
2013-04-25 05:50:00,39.9,13.1,30.05,East,91,0.0,2.0,33,0.00,,OVC120,0.00,VWS V14.01,2013-04-25 11:50:00,
2013-04-25 05:55:00,39.8,13.1,30.04,ENE,64,0.0,4.0,33,0.00,,OVC120,0.00,VWS V14.01,2013-04-25 11:55:00,
2013-04-25 06:00:00,40.0,13.2,30.04,SSE,165,1.0,2.0,33,0.00,,OVC120,0.00,VWS V14.01,2013-04-25 12:00:00,
2013-04-25 06:05:00,40.3,12.8,30.03,SSE,151,4.0,5.0,32,0.00,,OVC100,0.00,VWS V14.01,2013-04-25 12:05:00,
2013-04-25 06:10:00,41.3,13.7,30.01,East,94,7.0,11.0,32,0.00,,OVC100,0.00,VWS V14.01,2013-04-25 12:10:00,
2013-04-25 06:15:00,42.4,13.9,30.01,SSE,167,2.0,11.0,31,0.00,,OVC100,0.00,VWS V14.01,2013-04-25 12:15:00,
2013-04-25 06:20:00,41.6,13.9,30.02,SW,228,4.0,11.0,32,0.00,,OVC100,0.00,VWS V14.01,2013-04-25 12:20:00,
2013-04-25 06:25:00,40.9,16.0,30.03,WNW,290,2.0,11.0,36,0.00,,OVC100,0.00,VWS V14.01,2013-04-25 12:25:00,
2013-04-25 06:30:00,40.7,15.8,30.02,NNE,23,3.0,3.0,36,0.00,,OVC100,0.00,VWS V14.01,2013-04-25 12:30:00,
2013-04-25 06:35:00,40.3,15.5,30.03,West,281,2.0,3.0,36,0.00,,OVC090,0.00,VWS V14.01,2013-04-25 12:35:00,
2013-04-25 06:40:00,40.4,15.6,30.04,West,274,2.0,6.0,36,0.00,,OVC090,0.00,VWS V14.01,2013-04-25 12:40:00,
2013-04-25 06:46:00,40.8,15.9,30.03,SW,233,0.0,6.0,36,0.00,,OVC090,0.00,VWS V14.01,2013-04-25 12:46:00,
2013-04-25 06:51:00,41.0,16.1,30.04,West,269,3.0,6.0,36,0.00,,OVC090,0.00,VWS V14.01,2013-04-25 12:51:00,
2013-04-25 06:56:00,40.9,16.0,30.05,WNW,288,2.0,6.0,36,0.00,,OVC090,0.00,VWS V14.01,2013-04-25 12:56:00,
2013-04-25 07:00:00,40.9,16.6,30.05,WSW,255,0.0,6.0,37,0.00,,CLR,0.00,VWS V14.01,2013-04-25 13:00:00,
2013-04-25 07:01:00,40.9,16.6,30.05,WSW,255,0.0,0.0,37,0.00,,OVC090,0.00,VWS V14.01,2013-04-25 13:01:00,
2013-04-25 07:06:00,41.0,16.7,30.04,ESE,106,1.0,1.0,37,0.00,,OVC090,0.00,VWS V14.01,2013-04-25 13:06:00,
2013-04-25 07:11:00,40.9,16.6,30.05,SSE,155,0.0,2.0,37,0.00,,OVC090,0.00,VWS V14.01,2013-04-25 13:11:00,
2013-04-25 07:16:00,40.9,16.6,30.04,East,84,1.0,2.0,37,0.00,,OVC090,0.00,VWS V14.01,2013-04-25 13:16:00,
2013-04-25 07:21:00,41.0,16.7,30.05,East,82,0.0,2.0,37,0.00,,OVC090,0.00,VWS V14.01,2013-04-25 13:21:00,
2013-04-25 07:26:00,41.3,17.0,30.05,East,82,0.0,2.0,37,0.00,,OVC090,0.00,VWS V14.01,2013-04-25 13:26:00,
2013-04-25 07:30:00,41.6,16.6,30.06,East,94,0.0,2.0,36,0.00,,CLR,0.00,VWS V14.01,2013-04-25 13:30:00,
2013-04-25 07:31:00,41.7,16.7,30.06,East,93,1.0,1.0,36,0.00,,OVC080,0.00,VWS V14.01,2013-04-25 13:31:00,
2013-04-25 07:36:00,42.0,17.6,30.05,ENE,62,3.0,4.0,37,0.00,,OVC080,0.00,VWS V14.01,2013-04-25 13:36:00,
2013-04-25 07:41:00,42.3,17.3,30.06,East,81,2.0,4.0,36,0.00,,OVC080,0.00,VWS V14.01,2013-04-25 13:41:00,
2013-04-25 07:46:00,42.7,17.6,30.05,ENE,58,2.0,4.0,36,0.00,,OVC080,0.00,VWS V14.01,2013-04-25 13:46:00,
2013-04-25 07:51:00,43.1,18.0,30.05,ENE,72,0.0,4.0,36,0.00,,OVC080,0.00,VWS V14.01,2013-04-25 13:51:00,
2013-04-25 07:56:00,43.5,17.7,30.06,ENE,71,0.0,4.0,35,0.00,,OVC080,0.00,VWS V14.01,2013-04-25 13:56:00,
2013-04-25 08:00:00,43.6,17.8,30.05,ENE,71,0.0,4.0,35,0.00,,CLR,0.00,VWS V14.01,2013-04-25 14:00:00,
2013-04-25 08:01:00,43.6,17.8,30.05,ENE,71,0.0,0.0,35,0.00,,OVC080,0.00,VWS V14.01,2013-04-25 14:01:00,
2013-04-25 08:06:00,43.7,17.9,30.05,North,6,0.0,2.0,35,0.00,,OVC090,0.00,VWS V14.01,2013-04-25 14:06:00,
2013-04-25 08:11:00,43.7,18.5,30.05,North,6,0.0,2.0,36,0.00,,OVC090,0.00,VWS V14.01,2013-04-25 14:11:00,
2013-04-25 08:16:00,43.9,18.7,30.05,North,1,0.0,2.0,36,0.00,,OVC090,0.00,VWS V14.01,2013-04-25 14:16:00,
2013-04-25 08:21:00,43.9,18.7,30.04,NNW,338,0.0,2.0,36,0.00,,OVC090,0.00,VWS V14.01,2013-04-25 14:21:00,
2013-04-25 08:26:00,44.1,19.5,30.04,NNW,339,0.0,2.0,37,0.00,,OVC090,0.00,VWS V14.01,2013-04-25 14:26:00,
2013-04-25 08:30:00,44.3,19.0,30.05,WNW,301,2.0,3.0,36,0.00,,CLR,0.00,VWS V14.01,2013-04-25 14:30:00,
2013-04-25 08:31:00,44.3,19.0,30.05,WNW,299,0.0,2.0,36,0.00,,OVC090,0.00,VWS V14.01,2013-04-25 14:31:00,
2013-04-25 08:36:00,44.4,19.1,30.04,North,11,0.0,2.0,36,0.00,,OVC090,0.00,VWS V14.01,2013-04-25 14:36:00,
2013-04-25 08:41:00,44.5,19.2,30.04,North,356,0.0,2.0,36,0.00,,OVC090,0.00,VWS V14.01,2013-04-25 14:41:00,
2013-04-25 08:46:00,44.6,19.3,30.04,NNW,327,1.0,2.0,36,0.00,,OVC090,0.00,VWS V14.01,2013-04-25 14:46:00,
2013-04-25 08:51:00,44.7,19.4,30.04,NNW,345,2.0,3.0,36,0.00,,OVC090,0.00,VWS V14.01,2013-04-25 14:51:00,
2013-04-25 08:56:00,44.9,19.6,30.03,NNW,340,1.0,3.0,36,0.00,,OVC090,0.00,VWS V14.01,2013-04-25 14:56:00,
2013-04-25 09:00:00,45.0,19.7,30.04,NNW,340,0.0,3.0,36,0.00,,CLR,0.00,VWS V14.01,2013-04-25 15:00:00,
2013-04-25 09:01:00,45.1,19.8,30.04,NNW,340,0.0,0.0,36,0.00,,OVC100,0.00,VWS V14.01,2013-04-25 15:01:00,
2013-04-25 09:06:00,45.3,19.3,30.04,NW,314,2.0,3.0,35,0.00,,OVC100,0.00,VWS V14.01,2013-04-25 15:06:00,
2013-04-25 09:11:00,45.5,19.5,30.03,North,8,0.0,4.0,35,0.00,,OVC100,0.00,VWS V14.01,2013-04-25 15:11:00,
2013-04-25 09:16:00,45.5,20.1,30.04,North,351,2.0,6.0,36,0.00,,OVC100,0.00,VWS V14.01,2013-04-25 15:16:00,
2013-04-25 09:21:00,45.5,19.5,30.03,NNW,342,2.0,6.0,35,0.00,,OVC100,0.00,VWS V14.01,2013-04-25 15:21:00,
2013-04-25 09:27:00,45.7,19.6,30.03,NNW,342,2.0,6.0,35,0.00,,OVC100,0.00,VWS V14.01,2013-04-25 15:27:00,
2013-04-25 09:30:00,45.7,19.0,30.03,NW,318,4.0,6.0,34,0.00,,CLR,0.00,VWS V14.01,2013-04-25 15:30:00,
2013-04-25 09:32:00,45.6,18.9,30.03,NNW,338,2.0,4.0,34,0.00,,OVC100,0.00,VWS V14.01,2013-04-25 15:32:00,
2013-04-25 09:37:00,45.9,19.8,30.03,NNE,32,3.0,5.0,35,0.00,,OVC100,0.00,VWS V14.01,2013-04-25 15:37:00,
2013-04-25 09:42:00,46.1,20.0,30.03,NNW,343,2.0,5.0,35,0.00,,OVC100,0.00,VWS V14.01,2013-04-25 15:42:00,
2013-04-25 09:47:00,46.0,19.9,30.03,NNW,334,1.0,5.0,35,0.00,,BKN100,0.00,VWS V14.01,2013-04-25 15:47:00,
2013-04-25 09:52:00,46.2,19.4,30.03,NNW,338,4.0,5.0,34,0.00,,BKN100,0.00,VWS V14.01,2013-04-25 15:52:00,
2013-04-25 09:57:00,46.3,19.5,30.03,North,6,3.0,5.0,34,0.00,,BKN100,0.00,VWS V14.01,2013-04-25 15:57:00,
2013-04-25 10:00:00,46.4,20.2,30.02,NNW,345,2.0,5.0,35,0.00,,CLR,0.00,VWS V14.01,2013-04-25 16:00:00,
2013-04-25 10:02:00,46.3,19.5,30.03,NW,314,4.0,4.0,34,0.00,,SCT100,0.00,VWS V14.01,2013-04-25 16:02:00,
2013-04-25 10:07:00,46.2,20.1,30.03,NW,318,2.0,4.0,35,0.00,,SCT100,0.00,VWS V14.01,2013-04-25 16:07:00,
2013-04-25 10:12:00,46.2,20.1,30.03,WNW,295,1.0,4.0,35,0.00,,SCT100,0.00,VWS V14.01,2013-04-25 16:12:00,
2013-04-25 10:17:00,46.2,20.1,30.03,NW,304,0.0,4.0,35,0.00,,SCT100,0.00,VWS V14.01,2013-04-25 16:17:00,
2013-04-25 10:22:00,46.5,19.7,30.03,NE,34,0.0,4.0,34,0.00,,SCT100,0.00,VWS V14.01,2013-04-25 16:22:00,
2013-04-25 10:27:00,46.8,19.9,30.03,West,259,0.0,4.0,34,0.00,,SCT100,0.00,VWS V14.01,2013-04-25 16:27:00,
2013-04-25 10:30:00,46.9,20.0,30.03,NW,304,1.0,4.0,34,0.00,,CLR,0.00,VWS V14.01,2013-04-25 16:30:00,
2013-04-25 10:32:00,47.1,19.5,30.03,North,357,1.0,2.0,33,0.00,,BKN100,0.00,VWS V14.01,2013-04-25 16:32:00,
2013-04-25 10:37:00,47.5,19.9,30.03,NNE,28,0.0,2.0,33,0.00,,BKN100,0.00,VWS V14.01,2013-04-25 16:37:00,
2013-04-25 10:42:00,47.8,19.4,30.04,SE,124,2.0,4.0,32,0.00,,BKN100,0.00,VWS V14.01,2013-04-25 16:42:00,
2013-04-25 10:47:00,47.7,20.0,30.03,WNW,285,1.0,4.0,33,0.00,,OVC100,0.00,VWS V14.01,2013-04-25 16:47:00,
2013-04-25 10:52:00,47.8,19.4,30.03,South,183,0.0,4.0,32,0.00,,OVC100,0.00,VWS V14.01,2013-04-25 16:52:00,
2013-04-25 10:57:00,47.9,20.2,30.02,NE,54,4.0,4.0,33,0.00,,OVC100,0.00,VWS V14.01,2013-04-25 16:57:00,
2013-04-25 11:00:00,48.1,20.4,30.02,North,349,1.0,5.0,33,0.00,,CLR,0.00,VWS V14.01,2013-04-25 17:00:00,
2013-04-25 11:02:00,48.5,20.7,30.02,North,6,1.0,2.0,33,0.00,,OVC090,0.00,VWS V14.01,2013-04-25 17:02:00,
2013-04-25 11:07:00,49.3,21.4,30.02,NNW,334,1.0,5.0,33,0.00,,OVC090,0.00,VWS V14.01,2013-04-25 17:07:00,
2013-04-25 11:12:00,49.3,20.0,30.02,North,11,2.0,6.0,31,0.00,,OVC090,0.00,VWS V14.01,2013-04-25 17:12:00,
2013-04-25 11:17:00,49.1,20.5,30.02,NNW,333,3.0,6.0,32,0.00,,OVC090,0.00,VWS V14.01,2013-04-25 17:17:00,
2013-04-25 11:22:00,49.0,20.4,30.02,North,357,3.0,6.0,32,0.00,,OVC090,0.00,VWS V14.01,2013-04-25 17:22:00,
2013-04-25 11:27:00,49.2,20.6,30.01,North,9,0.0,6.0,32,0.00,,OVC090,0.00,VWS V14.01,2013-04-25 17:27:00,
2013-04-25 11:30:00,49.2,20.6,30.02,WNW,295,1.0,6.0,32,0.00,,CLR,0.00,VWS V14.01,2013-04-25 17:30:00,
2013-04-25 11:32:00,49.1,20.5,30.02,NNW,332,0.0,5.0,32,0.00,,OVC085,0.00,VWS V14.01,2013-04-25 17:32:00,
2013-04-25 11:37:00,49.1,20.5,30.01,North,358,0.0,5.0,32,0.00,,OVC085,0.00,VWS V14.01,2013-04-25 17:37:00,
2013-04-25 11:42:00,49.2,20.6,30.00,ENE,74,4.0,5.0,32,0.00,,OVC085,0.00,VWS V14.01,2013-04-25 17:42:00,
2013-04-25 11:47:00,49.6,21.7,30.00,NW,314,1.0,5.0,33,0.00,,OVC090,0.00,VWS V14.01,2013-04-25 17:47:00,
2013-04-25 11:52:00,50.4,21.7,30.00,NNW,345,1.0,5.0,32,0.00,,OVC090,0.00,VWS V14.01,2013-04-25 17:52:00,
2013-04-25 11:57:00,51.0,21.5,29.99,NNW,329,1.0,5.0,31,0.00,,OVC090,0.00,VWS V14.01,2013-04-25 17:57:00,
2013-04-25 12:00:00,51.2,21.6,29.99,NE,36,5.0,6.0,31,0.00,,CLR,0.00,VWS V14.01,2013-04-25 18:00:00,
2013-04-25 12:02:00,51.1,20.8,29.99,NE,49,5.0,7.0,30,0.00,,OVC090,0.00,VWS V14.01,2013-04-25 18:02:00,
2013-04-25 12:07:00,50.8,21.3,29.98,NNE,19,1.0,8.0,31,0.00,,OVC090,0.00,VWS V14.01,2013-04-25 18:07:00,
2013-04-25 12:12:00,51.2,21.6,29.98,NNW,333,4.0,8.0,31,0.00,,OVC090,0.00,VWS V14.01,2013-04-25 18:12:00,
2013-04-25 12:17:00,51.5,21.9,29.97,NW,325,0.0,8.0,31,0.00,,OVC090,0.00,VWS V14.01,2013-04-25 18:17:00,
2013-04-25 12:22:00,51.7,21.3,29.97,ENE,72,3.0,8.0,30,0.00,,OVC090,0.00,VWS V14.01,2013-04-25 18:22:00,
2013-04-25 12:27:00,51.7,21.3,29.97,NW,317,1.0,8.0,30,0.00,,OVC090,0.00,VWS V14.01,2013-04-25 18:27:00,
2013-04-25 12:30:00,51.8,21.4,29.96,North,355,0.0,8.0,30,0.00,,CLR,0.00,VWS V14.01,2013-04-25 18:30:00,
2013-04-25 12:33:00,52.1,21.6,29.96,NNW,329,3.0,3.0,30,0.00,,BKN090,0.00,VWS V14.01,2013-04-25 18:33:00,
2013-04-25 12:38:00,52.3,21.0,29.96,North,349,3.0,4.0,29,0.00,,BKN090,0.00,VWS V14.01,2013-04-25 18:38:00,
2013-04-25 12:43:00,52.2,20.9,29.95,NNW,338,0.0,4.0,29,0.00,,BKN090,0.00,VWS V14.01,2013-04-25 18:43:00,
2013-04-25 12:48:00,52.3,21.8,29.95,ESE,106,1.0,4.0,30,0.00,,BKN100,0.00,VWS V14.01,2013-04-25 18:48:00,
2013-04-25 12:53:00,52.6,21.3,29.95,North,349,0.0,4.0,29,0.00,,BKN100,0.00,VWS V14.01,2013-04-25 18:53:00,
2013-04-25 12:58:00,52.2,20.9,29.94,NW,322,2.0,4.0,29,0.00,,BKN100,0.00,VWS V14.01,2013-04-25 18:58:00,
2013-04-25 13:00:00,52.2,20.9,29.94,North,349,0.0,4.0,29,0.00,,CLR,0.00,VWS V14.01,2013-04-25 19:00:00,
2013-04-25 13:03:00,52.4,21.1,29.94,WNW,295,1.0,2.0,29,0.00,,OVC100,0.00,VWS V14.01,2013-04-25 19:03:00,
2013-04-25 13:08:00,52.7,21.4,29.93,NNW,332,2.0,3.0,29,0.00,,OVC100,0.00,VWS V14.01,2013-04-25 19:08:00,
2013-04-25 13:13:00,53.3,21.9,29.93,NE,44,1.0,3.0,29,0.00,,OVC100,0.00,VWS V14.01,2013-04-25 19:13:00,
2013-04-25 13:18:00,53.9,21.6,29.92,NNE,13,1.0,4.0,28,0.00,,OVC100,0.00,VWS V14.01,2013-04-25 19:18:00,
2013-04-25 13:23:00,54.8,22.3,29.92,ESE,121,2.0,5.0,28,0.00,,OVC100,0.00,VWS V14.01,2013-04-25 19:23:00,
2013-04-25 13:28:00,56.1,22.6,29.91,NNW,346,2.0,5.0,27,0.00,,OVC100,0.00,VWS V14.01,2013-04-25 19:28:00,
2013-04-25 13:30:00,56.5,22.9,29.91,NW,315,5.0,5.0,27,0.00,,CLR,0.00,VWS V14.01,2013-04-25 19:30:00,
2013-04-25 13:33:00,56.5,22.0,29.91,NW,319,4.0,6.0,26,0.00,,BKN100,0.00,VWS V14.01,2013-04-25 19:33:00,
2013-04-25 13:38:00,56.9,22.4,29.90,WSW,257,0.0,6.0,26,0.00,,BKN100,0.00,VWS V14.01,2013-04-25 19:38:00,
2013-04-25 13:43:00,56.8,22.3,29.90,NW,315,3.0,6.0,26,0.00,,BKN100,0.00,VWS V14.01,2013-04-25 19:43:00,
2013-04-25 13:48:00,57.8,23.2,29.89,North,359,1.0,10.0,26,0.00,,BKN100,0.00,VWS V14.01,2013-04-25 19:48:00,
2013-04-25 13:53:00,58.0,23.3,29.89,WNW,289,3.0,10.0,26,0.00,,BKN100,0.00,VWS V14.01,2013-04-25 19:53:00,
2013-04-25 13:58:00,57.9,22.3,29.90,WNW,291,3.0,10.0,25,0.00,,BKN100,0.00,VWS V14.01,2013-04-25 19:58:00,
2013-04-25 14:00:00,57.5,22.0,29.90,NW,324,4.0,10.0,25,0.00,,CLR,0.00,VWS V14.01,2013-04-25 20:00:00,
2013-04-25 14:03:00,57.0,22.5,29.90,WNW,298,4.0,6.0,26,0.00,,SCT100,0.00,VWS V14.01,2013-04-25 20:03:00,
2013-04-25 14:08:00,56.5,22.0,29.89,NW,304,2.0,6.0,26,0.00,,SCT100,0.00,VWS V14.01,2013-04-25 20:08:00,
2013-04-25 14:13:00,56.4,22.9,29.89,WNW,287,4.0,6.0,27,0.00,,SCT100,0.00,VWS V14.01,2013-04-25 20:13:00,
2013-04-25 14:18:00,56.1,22.6,29.89,NNE,19,0.0,7.0,27,0.00,,SCT100,0.00,VWS V14.01,2013-04-25 20:18:00,
2013-04-25 14:23:00,56.8,23.2,29.89,NW,306,1.0,7.0,27,0.00,,SCT100,0.00,VWS V14.01,2013-04-25 20:23:00,
2013-04-25 14:28:00,57.3,22.7,29.88,NW,304,0.0,7.0,26,0.00,,SCT100,0.00,VWS V14.01,2013-04-25 20:28:00,
2013-04-25 14:30:00,57.6,23.0,29.87,North,349,0.0,7.0,26,0.00,,CLR,0.00,VWS V14.01,2013-04-25 20:30:00,
2013-04-25 14:33:00,58.2,22.6,29.87,NW,324,2.0,4.0,25,0.00,,BKN110,0.00,VWS V14.01,2013-04-25 20:33:00,
2013-04-25 14:38:00,58.8,23.1,29.86,WNW,297,5.0,6.0,25,0.00,,BKN110,0.00,VWS V14.01,2013-04-25 20:38:00,
2013-04-25 14:43:00,59.5,22.7,29.86,NNW,330,2.0,6.0,24,0.00,,BKN110,0.00,VWS V14.01,2013-04-25 20:43:00,
2013-04-25 14:48:00,59.7,22.9,29.86,WSW,243,4.0,11.0,24,0.00,,SCT110,0.00,VWS V14.01,2013-04-25 20:48:00,
2013-04-25 14:53:00,60.6,22.6,29.85,West,276,9.0,16.0,23,0.00,,SCT110,0.00,VWS V14.01,2013-04-25 20:53:00,
2013-04-25 14:58:00,60.5,22.5,29.84,West,281,7.0,16.0,23,0.00,,SCT110,0.00,VWS V14.01,2013-04-25 20:58:00,
2013-04-25 15:00:00,60.2,23.3,29.84,West,278,5.0,16.0,24,0.00,,CLR,0.00,VWS V14.01,2013-04-25 21:00:00,
2013-04-25 15:03:00,60.2,23.3,29.84,WSW,243,7.0,9.0,24,0.00,,BKN100,0.00,VWS V14.01,2013-04-25 21:03:00,
2013-04-25 15:08:00,60.0,23.1,29.84,WNW,293,3.0,10.0,24,0.00,,BKN100,0.00,VWS V14.01,2013-04-25 21:08:00,
2013-04-25 15:14:00,60.1,23.2,29.83,West,276,8.0,14.0,24,0.00,,BKN100,0.00,VWS V14.01,2013-04-25 21:14:00,
2013-04-25 15:19:00,60.3,23.4,29.83,WNW,297,4.0,14.0,24,0.00,,BKN100,0.00,VWS V14.01,2013-04-25 21:19:00,
2013-04-25 15:24:00,60.3,24.4,29.82,WSW,257,8.0,14.0,25,0.00,,BKN100,0.00,VWS V14.01,2013-04-25 21:24:00,
2013-04-25 15:29:00,60.5,24.5,29.81,NW,314,5.0,14.0,25,0.00,,BKN100,0.00,VWS V14.01,2013-04-25 21:29:00,
2013-04-25 15:30:00,60.7,24.7,29.81,WSW,249,7.0,14.0,25,0.00,,CLR,0.00,VWS V14.01,2013-04-25 21:30:00,
2013-04-25 15:34:00,60.9,23.9,29.81,WSW,257,5.0,9.0,24,0.00,,FEW100,0.00,VWS V14.01,2013-04-25 21:34:00,
2013-04-25 15:39:00,60.9,24.9,29.81,South,183,5.0,10.0,25,0.00,,FEW100,0.00,VWS V14.01,2013-04-25 21:39:00,
2013-04-25 15:44:00,61.4,24.3,29.80,SW,215,12.0,14.0,24,0.00,,FEW100,0.00,VWS V14.01,2013-04-25 21:44:00,
2013-04-25 15:49:00,62.6,24.3,29.79,SW,214,7.0,16.0,23,0.00,,CLR,0.00,VWS V14.01,2013-04-25 21:49:00,
2013-04-25 15:54:00,63.6,24.1,29.78,SSW,212,8.0,17.0,22,0.00,,CLR,0.00,VWS V14.01,2013-04-25 21:54:00,
2013-04-25 15:59:00,63.4,23.9,29.78,West,273,11.0,20.0,22,0.00,,CLR,0.00,VWS V14.01,2013-04-25 21:59:00,
2013-04-25 16:00:00,63.5,22.9,29.77,WSW,252,9.0,20.0,21,0.00,,CLR,0.00,VWS V14.01,2013-04-25 22:00:00,
2013-04-25 16:04:00,63.5,24.0,29.77,WSW,253,15.0,17.0,22,0.00,,CLR,0.00,VWS V14.01,2013-04-25 22:04:00,
2013-04-25 16:09:00,62.9,23.5,29.77,West,262,9.0,17.0,22,0.00,,CLR,0.00,VWS V14.01,2013-04-25 22:09:00,
2013-04-25 16:14:00,62.3,23.0,29.77,SW,226,6.0,17.0,22,0.00,,CLR,0.00,VWS V14.01,2013-04-25 22:14:00,
2013-04-25 16:19:00,62.0,22.8,29.76,SW,222,8.0,19.0,22,0.00,,CLR,0.00,VWS V14.01,2013-04-25 22:19:00,
2013-04-25 16:24:00,62.0,23.8,29.76,WSW,246,8.0,19.0,23,0.00,,CLR,0.00,VWS V14.01,2013-04-25 22:24:00,
2013-04-25 16:29:00,62.1,23.9,29.76,West,263,11.0,19.0,23,0.00,,CLR,0.00,VWS V14.01,2013-04-25 22:29:00,
2013-04-25 16:30:00,62.1,23.9,29.76,NW,307,10.0,19.0,23,0.00,,CLR,0.00,VWS V14.01,2013-04-25 22:30:00,
2013-04-25 16:34:00,61.7,23.5,29.76,West,281,14.0,20.0,23,0.00,,CLR,0.00,VWS V14.01,2013-04-25 22:34:00,
2013-04-25 16:39:00,61.5,23.4,29.75,SW,214,7.0,20.0,23,0.00,,CLR,0.00,VWS V14.01,2013-04-25 22:39:00,
2013-04-25 16:44:00,61.8,23.6,29.75,WSW,257,9.0,20.0,23,0.00,,CLR,0.00,VWS V14.01,2013-04-25 22:44:00,
2013-04-25 16:49:00,62.1,23.9,29.75,WSW,257,12.0,20.0,23,0.00,,CLR,0.00,VWS V14.01,2013-04-25 22:49:00,
2013-04-25 16:54:00,62.2,24.0,29.75,West,269,15.0,20.0,23,0.00,,CLR,0.00,VWS V14.01,2013-04-25 22:54:00,
2013-04-25 16:59:00,61.9,23.7,29.75,West,264,6.0,20.0,23,0.00,,CLR,0.00,VWS V14.01,2013-04-25 22:59:00,
2013-04-25 17:00:00,61.9,23.7,29.75,SW,216,6.0,20.0,23,0.00,,CLR,0.00,VWS V14.01,2013-04-25 23:00:00,
2013-04-25 17:04:00,61.8,23.6,29.76,WSW,252,16.0,20.0,23,0.00,,CLR,0.00,VWS V14.01,2013-04-25 23:04:00,
2013-04-25 17:09:00,61.1,25.0,29.78,SW,228,29.0,29.0,25,0.00,,CLR,0.00,VWS V14.01,2013-04-25 23:09:00,
2013-04-25 17:14:00,60.1,25.1,29.76,WNW,291,6.0,29.0,26,0.00,,CLR,0.00,VWS V14.01,2013-04-25 23:14:00,
2013-04-25 17:19:00,60.6,25.5,29.76,WSW,253,19.0,29.0,26,0.00,,CLR,0.00,VWS V14.01,2013-04-25 23:19:00,
2013-04-25 17:24:00,60.5,24.5,29.76,SW,217,18.0,29.0,25,0.00,,CLR,0.00,VWS V14.01,2013-04-25 23:24:00,
2013-04-25 17:29:00,59.9,25.0,29.76,SW,219,17.0,29.0,26,0.00,,CLR,0.00,VWS V14.01,2013-04-25 23:29:00,
2013-04-25 17:30:00,59.9,25.0,29.76,WSW,250,19.0,29.0,26,0.00,,CLR,0.00,VWS V14.01,2013-04-25 23:30:00,
2013-04-25 17:34:00,59.8,25.8,29.76,SW,235,16.0,22.0,27,0.00,,CLR,0.00,VWS V14.01,2013-04-25 23:34:00,
2013-04-25 17:39:00,59.7,26.6,29.76,WSW,238,18.0,22.0,28,0.00,,CLR,0.00,VWS V14.01,2013-04-25 23:39:00,
2013-04-25 17:44:00,60.4,27.2,29.76,WSW,242,8.0,22.0,28,0.00,,CLR,0.00,VWS V14.01,2013-04-25 23:44:00,
2013-04-25 17:49:00,60.9,27.6,29.76,SW,218,13.0,22.0,28,0.00,,CLR,0.00,VWS V14.01,2013-04-25 23:49:00,
2013-04-25 17:55:00,61.3,27.1,29.77,West,263,9.0,22.0,27,0.00,,CLR,0.00,VWS V14.01,2013-04-25 23:55:00,
2013-04-25 18:00:00,59.8,28.3,29.77,SW,221,18.0,23.0,30,0.00,,CLR,0.00,VWS V14.01,2013-04-26 00:00:00,
2013-04-25 18:05:00,57.8,29.6,29.78,South,173,15.0,25.0,34,0.00,,CLR,0.00,VWS V14.01,2013-04-26 00:05:00,
2013-04-25 18:10:00,56.3,31.0,29.79,South,184,19.0,25.0,38,0.00,,CLR,0.00,VWS V14.01,2013-04-26 00:10:00,
2013-04-25 18:15:00,55.2,31.9,29.78,SSW,195,18.0,25.0,41,0.00,,CLR,0.00,VWS V14.01,2013-04-26 00:15:00,
2013-04-25 18:20:00,54.5,31.9,29.78,SSW,211,12.0,25.0,42,0.00,,CLR,0.00,VWS V14.01,2013-04-26 00:20:00,
2013-04-25 18:25:00,54.0,32.0,29.78,SW,219,13.0,25.0,43,0.00,,CLR,0.00,VWS V14.01,2013-04-26 00:25:00,
2013-04-25 18:30:00,53.7,32.3,29.78,SE,140,10.0,25.0,44,0.00,,CLR,0.00,VWS V14.01,2013-04-26 00:30:00,
2013-04-25 18:35:00,53.4,32.6,29.78,South,184,7.0,19.0,45,0.00,,CLR,0.00,VWS V14.01,2013-04-26 00:35:00,
2013-04-25 18:40:00,53.3,32.5,29.77,SSW,197,8.0,19.0,45,0.00,,CLR,0.00,VWS V14.01,2013-04-26 00:40:00,
2013-04-25 18:45:00,53.3,32.5,29.77,SSW,198,6.0,19.0,45,0.00,,CLR,0.00,VWS V14.01,2013-04-26 00:45:00,
2013-04-25 18:50:00,53.3,32.0,29.77,SW,231,6.0,19.0,44,0.00,,SCT120,0.00,VWS V14.01,2013-04-26 00:50:00,
2013-04-25 18:55:00,53.4,31.5,29.77,SE,142,4.0,19.0,43,0.00,,SCT120,0.00,VWS V14.01,2013-04-26 00:55:00,
2013-04-25 19:00:00,53.4,31.5,29.77,SSE,167,8.0,8.0,43,0.00,,SCT120,0.00,VWS V14.01,2013-04-26 01:00:00,
2013-04-25 19:05:00,53.5,31.0,29.77,SSE,159,6.0,15.0,42,0.00,,BKN120,0.00,VWS V14.01,2013-04-26 01:05:00,
2013-04-25 19:10:00,53.4,30.9,29.77,South,186,4.0,15.0,42,0.00,,BKN120,0.00,VWS V14.01,2013-04-26 01:10:00,
2013-04-25 19:15:00,53.4,30.9,29.77,SSW,210,7.0,15.0,42,0.00,,BKN120,0.00,VWS V14.01,2013-04-26 01:15:00,
2013-04-25 19:20:00,53.4,30.3,29.78,South,181,7.0,15.0,41,0.00,,BKN120,0.00,VWS V14.01,2013-04-26 01:20:00,
2013-04-25 19:25:00,53.5,31.0,29.78,SSW,212,3.0,15.0,42,0.00,,BKN120,0.00,VWS V14.01,2013-04-26 01:25:00,
2013-04-25 19:30:00,53.4,30.3,29.79,South,172,7.0,10.0,41,0.00,,BKN120,0.00,VWS V14.01,2013-04-26 01:30:00,
2013-04-25 19:35:00,53.4,30.9,29.79,West,269,15.0,19.0,42,0.00,,OVC090,0.00,VWS V14.01,2013-04-26 01:35:00,
2013-04-25 19:40:00,53.6,29.3,29.80,SSW,211,11.0,19.0,39,0.00,,OVC090,0.00,VWS V14.01,2013-04-26 01:40:00,
2013-04-25 19:45:00,53.4,30.3,29.79,SSE,161,1.0,19.0,41,0.00,,OVC090,0.00,VWS V14.01,2013-04-26 01:45:00,
2013-04-25 19:50:00,53.3,30.2,29.79,West,272,0.0,19.0,41,0.00,,OVC090,0.00,VWS V14.01,2013-04-26 01:50:00,
2013-04-25 19:55:00,53.1,30.6,29.81,WNW,283,8.0,19.0,42,0.00,,OVC090,0.00,VWS V14.01,2013-04-26 01:55:00,
2013-04-25 20:00:00,51.0,32.0,29.83,NNW,333,9.0,10.0,48,0.00,,OVC090,0.00,VWS V14.01,2013-04-26 02:00:00,
2013-04-25 20:05:00,49.5,32.6,29.84,WNW,292,9.0,15.0,52,0.00,,OVC090,0.00,VWS V14.01,2013-04-26 02:05:00,
2013-04-25 20:10:00,48.8,33.4,29.84,North,354,13.0,15.0,55,0.00,,OVC090,0.00,VWS V14.01,2013-04-26 02:10:00,
2013-04-25 20:15:00,47.7,34.9,29.85,NNW,334,4.0,15.0,61,0.00,,OVC090,0.00,VWS V14.01,2013-04-26 02:15:00,
2013-04-25 20:20:00,46.7,36.0,29.85,NW,326,5.0,15.0,66,0.00,,OVC090,0.00,VWS V14.01,2013-04-26 02:20:00,
2013-04-25 20:25:00,46.1,36.1,29.86,NE,44,9.0,15.0,68,0.00,,OVC090,0.00,VWS V14.01,2013-04-26 02:25:00,
2013-04-25 20:30:00,45.7,36.8,29.86,NNE,25,5.0,5.0,71,0.00,,OVC090,0.00,VWS V14.01,2013-04-26 02:30:00,
2013-04-25 20:35:00,45.1,37.7,29.87,NE,41,4.0,9.0,75,0.00,,OVC065,0.00,VWS V14.01,2013-04-26 02:35:00,
2013-04-25 20:40:00,44.7,37.9,29.87,NE,47,4.0,9.0,77,0.00,,OVC065,0.00,VWS V14.01,2013-04-26 02:40:00,
2013-04-25 20:45:00,44.3,37.9,29.88,ENE,64,7.0,10.0,78,0.00,,BKN085,0.00,VWS V14.01,2013-04-26 02:45:00,
2013-04-25 20:51:00,44.3,37.9,29.88,ENE,63,3.0,10.0,78,0.00,,BKN085,0.00,VWS V14.01,2013-04-26 02:51:00,
2013-04-25 20:56:00,44.0,37.9,29.88,ENE,65,3.0,10.0,79,0.01,,BKN085,0.01,VWS V14.01,2013-04-26 02:56:00,
2013-04-25 21:00:00,43.7,38.3,29.88,ENE,69,4.0,10.0,81,0.02,,CLR,0.02,VWS V14.01,2013-04-26 03:00:00,
2013-04-25 21:01:00,43.6,38.2,29.88,East,97,3.0,4.0,81,0.02,,BKN085,0.02,VWS V14.01,2013-04-26 03:01:00,
2013-04-25 21:06:00,43.5,38.4,29.89,East,82,2.0,6.0,82,0.03,,OVC085,0.03,VWS V14.01,2013-04-26 03:06:00,
2013-04-25 21:11:00,43.2,38.4,29.89,ESE,122,4.0,6.0,83,0.03,,OVC085,0.03,VWS V14.01,2013-04-26 03:11:00,
2013-04-25 21:16:00,43.1,38.6,29.89,East,91,6.0,6.0,84,0.04,,OVC085,0.04,VWS V14.01,2013-04-26 03:16:00,
2013-04-25 21:21:00,43.0,38.5,29.89,ESE,105,3.0,7.0,84,0.04,,OVC085,0.04,VWS V14.01,2013-04-26 03:21:00,
2013-04-25 21:26:00,43.0,38.5,29.89,NE,34,3.0,7.0,84,0.05,,OVC085,0.05,VWS V14.01,2013-04-26 03:26:00,
2013-04-25 21:30:00,42.9,37.8,29.90,WNW,290,1.0,7.0,82,0.05,,CLR,0.05,VWS V14.01,2013-04-26 03:30:00,
2013-04-25 21:31:00,43.0,37.9,29.90,NW,316,2.0,4.0,82,0.05,,OVC060,0.05,VWS V14.01,2013-04-26 03:31:00,
2013-04-25 21:36:00,43.2,38.4,29.90,East,81,3.0,4.0,83,0.05,,OVC060,0.05,VWS V14.01,2013-04-26 03:36:00,
2013-04-25 21:41:00,43.1,38.6,29.90,ESE,113,4.0,4.0,84,0.05,,OVC060,0.05,VWS V14.01,2013-04-26 03:41:00,
2013-04-25 21:46:00,43.0,38.5,29.90,ESE,107,7.0,7.0,84,0.05,,OVC050,0.05,VWS V14.01,2013-04-26 03:46:00,
2013-04-25 21:51:00,42.6,38.4,29.90,SE,135,3.0,7.0,85,0.05,,OVC050,0.05,VWS V14.01,2013-04-26 03:51:00,
2013-04-25 21:56:00,42.5,38.3,29.91,SE,134,3.0,7.0,85,0.05,,OVC050,0.05,VWS V14.01,2013-04-26 03:56:00,
2013-04-25 22:00:00,42.5,38.3,29.91,SE,139,4.0,7.0,85,0.05,,CLR,0.05,VWS V14.01,2013-04-26 04:00:00,
2013-04-25 22:01:00,42.5,38.3,29.91,SE,141,8.0,8.0,85,0.03,,OVC065,0.05,VWS V14.01,2013-04-26 04:01:00,
2013-04-25 22:03:00,42.6,38.1,29.90,SE,125,11.0,11.0,84,0.03,,OVC065,0.05,VWS V14.01,2013-04-26 04:03:00,
2013-04-25 22:04:00,42.6,38.1,29.90,SE,142,6.0,11.0,84,0.03,,OVC065,0.05,VWS V14.01,2013-04-26 04:04:00,
2013-04-25 22:07:00,42.6,38.1,29.90,ESE,108,5.0,11.0,84,0.03,,OVC065,0.05,VWS V14.01,2013-04-26 04:07:00,
2013-04-25 22:12:00,42.4,37.9,29.90,ESE,110,7.0,13.0,84,0.03,,OVC065,0.05,VWS V14.01,2013-04-26 04:12:00,
2013-04-25 22:17:00,42.5,37.7,29.90,SSE,149,7.0,13.0,83,0.03,,OVC065,0.05,VWS V14.01,2013-04-26 04:17:00,
2013-04-25 22:22:00,42.5,37.7,29.90,ESE,121,9.0,13.0,83,0.03,,OVC065,0.05,VWS V14.01,2013-04-26 04:22:00,
2013-04-25 22:27:00,42.4,37.6,29.90,ESE,122,6.0,13.0,83,0.03,,OVC065,0.05,VWS V14.01,2013-04-26 04:27:00,
2013-04-25 22:30:00,42.4,37.6,29.90,ESE,119,6.0,13.0,83,0.03,,CLR,0.05,VWS V14.01,2013-04-26 04:30:00,
2013-04-25 22:32:00,42.5,37.4,29.90,SE,144,8.0,9.0,82,0.00,,OVC065,0.05,VWS V14.01,2013-04-26 04:32:00,
2013-04-25 22:37:00,42.7,37.3,29.90,SE,127,5.0,9.0,81,0.00,,OVC065,0.05,VWS V14.01,2013-04-26 04:37:00,
2013-04-25 22:42:00,42.7,37.6,29.90,ESE,113,4.0,10.0,82,0.00,,OVC065,0.05,VWS V14.01,2013-04-26 04:42:00,
2013-04-25 22:47:00,42.6,37.5,29.91,SE,138,12.0,12.0,82,0.00,,OVC070,0.05,VWS V14.01,2013-04-26 04:47:00,
2013-04-25 22:52:00,42.4,37.3,29.91,SE,129,8.0,13.0,82,0.00,,OVC070,0.05,VWS V14.01,2013-04-26 04:52:00,
2013-04-25 22:57:00,42.3,37.2,29.91,SSE,162,7.0,13.0,82,0.00,,OVC070,0.05,VWS V14.01,2013-04-26 04:57:00,
2013-04-25 23:00:00,42.3,37.5,29.91,SSE,160,9.0,14.0,83,0.00,,CLR,0.05,VWS V14.01,2013-04-26 05:00:00,
2013-04-25 23:02:00,42.3,37.2,29.91,SE,142,12.0,14.0,82,0.00,,OVC080,0.05,VWS V14.01,2013-04-26 05:02:00,
2013-04-25 23:08:00,42.4,37.3,29.92,ESE,122,7.0,14.0,82,0.00,,OVC080,0.05,VWS V14.01,2013-04-26 05:08:00,
2013-04-25 23:13:00,42.5,37.4,29.91,ESE,108,6.0,14.0,82,0.00,,OVC080,0.05,VWS V14.01,2013-04-26 05:13:00,
2013-04-25 23:18:00,42.7,36.7,29.91,South,189,6.0,16.0,79,0.00,,OVC080,0.05,VWS V14.01,2013-04-26 05:18:00,
2013-04-25 23:23:00,43.1,37.4,29.91,SE,146,11.0,16.0,80,0.00,,OVC080,0.05,VWS V14.01,2013-04-26 05:23:00,
2013-04-25 23:28:00,42.5,37.1,29.91,ESE,102,10.0,16.0,81,0.00,,OVC080,0.05,VWS V14.01,2013-04-26 05:28:00,
2013-04-25 23:30:00,42.5,37.1,29.91,SE,143,9.0,16.0,81,0.00,,CLR,0.05,VWS V14.01,2013-04-26 05:30:00,
2013-04-25 23:33:00,42.5,37.1,29.91,SE,143,8.0,14.0,81,0.00,,OVC090,0.05,VWS V14.01,2013-04-26 05:33:00,
2013-04-25 23:38:00,42.5,37.1,29.91,SE,132,10.0,14.0,81,0.00,,OVC090,0.05,VWS V14.01,2013-04-26 05:38:00,
2013-04-25 23:43:00,42.5,36.8,29.91,SE,142,12.0,14.0,80,0.00,,OVC090,0.05,VWS V14.01,2013-04-26 05:43:00,
2013-04-25 23:48:00,42.8,36.4,29.91,SE,130,9.0,15.0,78,0.00,,OVC060,0.05,VWS V14.01,2013-04-26 05:48:00,
2013-04-25 23:53:00,42.8,36.4,29.90,SE,143,5.0,19.0,78,0.00,,OVC060,0.05,VWS V14.01,2013-04-26 05:53:00,
2013-04-25 23:58:00,42.8,36.1,29.90,SE,139,10.0,19.0,77,0.00,,OVC060,0.05,VWS V14.01,2013-04-26 05:58:00,